This demonstration page uses our WeatherBlox Daily Observations layout. Learn more.

38.88101, -77.10428

Hourly Observations for June 12, 2015

Temp ( °F °C ) Dew Point ( °F °C ) Humidity (%) Winds ( mph kmh ) Pressure ( in mb ) Visibility ( mi km ) Precip ( " mm )
12:52 am 00:52 Mostly Clear 80 26.7 73 22.8 79 79 S 8 13 29.95 1014 10 16.0934 0 0
1:52 am 01:52 Clear 80 26.7 73 22.8 79 79 S 7 11 29.95 1014 10 16.0934 0 0
2:52 am 02:52 Clear 79 26.1 73 22.8 82 82 S 8 13 29.94 1014 10 16.0934 0 0
3:52 am 03:52 Clear 78 25.6 73 22.8 85 85 S 8 13 29.93 1014 10 16.0934 0 0
4:52 am 04:52 Clear 77 25 72 22.2 85 85 SSW 6 9 29.94 1014 9 14.48406 0 0
5:32 am 05:32 Partly Cloudy 77 25 72 22 83 83 SSW 5 7 29.94 1014 10 16.0934 0 0
5:52 am 05:52 Mostly Cloudy 77 25 71 21.7 82 82 S 7 11 29.95 1014 10 16.0934 0 0
6:52 am 06:52 Mostly Cloudy 78 25.6 71 21.7 79 79 S 7 11 29.96 1015 10 16.0934 0 0
7:52 am 07:52 Mostly Cloudy 79 26.1 72 22.2 79 79 S 9 15 29.97 1015 10 16.0934 0 0
8:52 am 08:52 Mostly Cloudy 81 27.2 73 22.8 77 77 S 10 17 29.97 1015 10 16.0934 0 0
9:52 am 09:52 Mostly Cloudy 84 28.9 73 22.8 70 70 S 10 17 29.97 1015 10 16.0934 0 0
10:52 am 10:52 Cloudy 86 30 74 23.3 67 67 S 9 15 29.96 1015 10 16.0934 0 0
11:52 am 11:52 Cloudy 89 31.7 74 23.3 61 61 S 10 17 29.96 1014 10 16.0934 0 0
12:52 pm 12:52 Cloudy 90 32.2 74 23.3 59 59 S 15 24 29.93 1014 10 16.0934 0 0
1:52 pm 13:52 Cloudy 92 33.3 72 22.2 52 52 S 14 22 29.92 1013 10 16.0934 0 0
2:52 pm 14:52 Mostly Cloudy 93 33.9 71 21.7 49 49 S 17 28 29.9 1012 10 16.0934 0 0
3:52 pm 15:52 Partly Cloudy 93 33.9 72 22.2 50 50 SW 14 22 29.88 1012 10 16.0934 0 0
4:52 pm 16:52 Partly Cloudy 93 33.9 69 20.6 46 46 SSW 20 31 29.88 1012 10 16.0934 0 0
5:52 pm 17:52 Mostly Cloudy 92 33.3 69 20.6 47 47 SSW 17 28 29.88 1012 10 16.0934 0 0
6:16 pm 18:16 Mostly Cloudy with Thunderstorms 91 33 70 21 49 49 SSW 15 24 29.88 1012 10 16.0934 0 0
6:31 pm 18:31 Mostly Cloudy with Thunderstorms 90 32 70 21 52 52 W 23 37 29.91 1013 10 16.0934 0 0
6:39 pm 18:39 Windy with Storms Likely 86 30 70 21 59 59 WSW 21 33 29.88 1012 10 16.0934 0 0.0254
6:42 pm 18:42 Windy with Storms Likely 84 29 70 21 62 62 WSW 24 39 29.88 1012 7 11.26538 0 0
6:52 pm 18:52 Mostly Cloudy with Light Thunderstorms 80 26.7 71 21.7 74 74 W 13 20 29.9 1012 6 9.65604 0.01 0.254
7:00 pm 19:00 Cloudy with Light Rain 81 27 66 19 62 62 W 12 19 29.88 1012 9 14.48406 0 0
7:32 pm 19:32 Cloudy 81 27 72 22 74 74 WSW 8 13 29.88 1012 10 16.0934 0 0
7:52 pm 19:52 Cloudy 80 26.7 73 22.8 79 79 SSE 3 6 29.89 1012 10 16.0934 0.01 0.254
8:52 pm 20:52 Mostly Cloudy 81 27.2 74 23.3 79 79 S 3 6 29.9 1012 10 16.0934 0 0
9:52 pm 21:52 Partly Cloudy 80 26.7 73 22.8 79 79 SSW 7 11 29.91 1013 10 16.0934 0 0
10:52 pm 22:52 Mostly Clear 81 27.2 72 22.2 74 74 SW 6 9 29.92 1013 10 16.0934 0 0
11:52 pm 23:52 Mostly Clear 79 26.1 71 21.7 77 77 SSW 8 13 29.91 1013 10 16.0934 0 0

Powered by AerisWeather